[[{"header":{"parameterUnit":"m.s-1","parameterCategory":1,"la1":30.2991,"la2":30.254,"lo1":-89.0895,"lo2":-89.0444,"dy":0.0017,"dx":0.0017,"nx":28,"ny":28,"refTime":"2025-07-12T21:00:00:Z","depth":0,"parameterNumber":2,"parameterNumberName":"U-component_of_WINDS"},"data":[0,0,0,0,0,0,0,0,0,0,0,0,0,0,0,0,0,0,0,0,0,0,0,0,0,0,0,0,0,0,0,0,0,0,0,0,0,0,0,0,0,0,0,0,0,0,0,0,0,0,0,0,0,0,0,0,0,0,1.1464,1.1466,0,1.1664,1.1666,1.1668,1.1754,1.1753,1.1753,1.1753,1.1958,1.1964,1.1969,0,0,0,0,0,0,0,0,0,0,0,0,0,1.1157,1.1162,1.1464,1.1466,1.1469,1.1663,1.1666,1.1669,1.1754,1.1753,1.1753,1.1752,1.1956,1.1963,1.197,0,0,0,0,0,0,0,0,0,0,0,0,0,1.1317,1.1164,1.1464,1.1535,1.1543,1.1663,1.1666,1.167,1.1754,1.1753,1.1753,1.1752,1.1954,1.1962,1.1971,1.2035,0,0,1.1997,1.2001,0,0,0,0,0,0,0,0,1.1308,1.1328,1.1522,1.153,1.154,1.1683,1.1633,1.1792,1.1754,1.1674,1.1753,1.1752,1.1867,1.1883,1.1921,1.2044,1.2053,1.1998,1.2003,1.2007,1.201,0,0,0,0,0,0,0,1.1297,1.132,1.1543,1.1524,1.1535,1.1557,1.1579,1.1664,1.1771,1.1681,1.1687,1.171,1.1872,1.1913,1.1927,1.2056,1.1998,1.2006,1.2011,1.2014,1.2243,1.2243,0,0,0,0,0,0,1.1274,1.131,1.1537,1.1549,1.142,1.1563,1.1588,1.1638,1.177,1.179,1.171,1.1713,1.1898,1.1917,1.1934,1.2019,1.2007,1.2015,1.202,1.2242,1.2243,1.2244,0,0,0,0,0,0,1.1267,1.1293,1.1529,1.1432,1.1463,1.1569,1.1624,1.1642,1.1683,1.1792,1.1812,1.1732,1.1899,1.1922,1.2009,1.2027,1.2019,1.2027,1.2241,1.2242,1.2243,1.2187,0,0,0,0,0,0,1.1258,1.129,1.1315,1.1431,1.1468,1.16,1.1625,1.1646,1.1698,1.1703,1.1818,1.1837,1.19,1.1996,1.2018,1.2039,1.2034,1.224,1.2241,1.2243,1.2187,1.2186,1.2184,0,0,0,0,0,1.1246,1.1291,1.1316,1.1343,1.1502,1.16,1.1621,1.1693,1.1699,1.1725,1.1795,1.1833,1.2021,1.2004,1.203,1.2053,1.2239,1.2241,1.2243,1.2188,1.2186,1.2184,0,0,0,0,0,0,1.1175,1.1308,1.1337,1.1421,1.1499,1.1615,1.165,1.1688,1.1766,1.1769,1.1854,1.1879,1.1959,1.2015,1.1994,1.2122,1.2133,1.214,1.2083,1.2082,1.2081,1.2065,1.2041,0,0,0,0,0,1.1169,1.1238,1.135,1.1414,1.1451,1.1544,1.1589,1.1638,1.1722,1.1755,1.1832,1.1912,1.199,1.2039,1.2116,1.2196,1.2222,1.2225,1.2223,1.2221,1.2227,1.2273,1.2276,1.225,1.225,1.225,0,0,1.1157,1.1238,1.1277,1.1401,1.1467,1.1537,1.1571,1.1643,1.1696,1.1767,1.1853,1.1912,1.2008,1.2091,1.2132,1.2141,1.224,1.2224,1.2222,1.2228,1.2275,1.2278,1.228,1.2251,1.2251,1.2251,0,0,1.1171,1.124,1.13,1.1365,1.1465,1.1526,1.154,1.1651,1.1693,1.1781,1.1836,1.19,1.2031,1.2097,1.2148,1.2187,1.2225,1.221,1.2202,1.2246,1.2248,1.2251,1.2265,1.2269,1.2215,1.2214,1.2214,0,1.1144,1.1251,1.1326,1.1396,1.1449,1.1516,1.1578,1.1638,1.1757,1.1793,1.18,1.1967,1.2036,1.2136,1.2145,1.2184,1.2203,1.2197,1.2242,1.2245,1.2248,1.2263,1.2268,1.2212,1.2212,1.2212,1.2213,0,1.1213,1.1287,1.1324,1.1437,1.1495,1.156,1.1645,1.1694,1.1737,1.1798,1.1887,1.1972,1.2068,1.2095,1.2138,1.2202,1.2204,1.2225,1.2238,1.2247,1.2262,1.2268,1.2208,1.2209,1.221,1.2211,0,0,1.1188,1.1342,1.1355,1.1407,1.1522,1.158,1.1648,1.1742,1.1782,1.1863,1.1922,1.2032,1.2053,1.211,1.2161,1.22,1.2226,1.2218,1.2221,1.2216,1.2301,1.2284,1.2289,1.2252,1.2253,1.2254,1.2293,0,1.1219,1.1344,1.1413,1.1509,1.1578,1.1643,1.1702,1.1779,1.1837,1.1905,1.1969,1.2046,1.2067,1.2102,1.2144,1.2214,1.2244,1.2212,1.2308,1.2311,1.2282,1.2297,1.228,1.2313,1.23,1.2301,1.2302,0,1.127,1.1349,1.1452,1.1559,1.1591,1.1643,1.1734,1.1797,1.1886,1.1926,1.1989,1.204,1.2115,1.2121,1.2226,1.2203,1.2246,1.2287,1.229,1.2302,1.2307,1.231,1.2325,1.233,1.2312,1.2311,1.231,0,1.1242,1.1374,1.1453,1.1496,1.1622,1.1657,1.1712,1.18,1.1852,1.1931,1.1966,1.2053,1.2101,1.2168,1.2241,1.2239,1.2338,1.2351,1.2374,1.2372,1.2392,1.239,1.2414,1.2419,1.2419,1.2419,1.2419,0,1.1269,1.1329,1.1442,1.149,1.156,1.1639,1.1706,1.1766,1.1844,1.1905,1.1966,1.2022,1.2115,1.2183,1.2241,1.2319,1.234,1.2375,1.2389,1.2369,1.2365,1.2399,1.2399,1.2421,1.242,1.242,1.242,0,1.1249,1.1327,1.1417,1.1529,1.1559,1.1605,1.1702,1.1751,1.1813,1.189,1.1912,1.2008,1.2092,1.2171,1.2282,1.2321,1.2399,1.2418,1.2369,1.2377,1.2396,1.2393,1.2444,1.2454,1.2451,1.2451,1.2451,0,1.126,1.1309,1.1426,1.1471,1.1524,1.1597,1.165,1.173,1.1782,1.1887,1.1924,1.2012,1.2086,1.2216,1.2296,1.2382,1.2403,1.2415,1.2417,1.2395,1.2404,1.24,1.2406,1.2413,1.2413,1.2413,1.2413,0,1.1273,1.1309,1.1383,1.1471,1.1532,1.1605,1.168,1.1714,1.1808,1.1864,1.195,1.2007,1.2121,1.2207,1.2302,1.2359,1.2402,1.2411,1.2421,1.2402,1.2371,1.2388,1.2365,1.241,1.241,1.241,1.2411,1.2411,1.127,1.1316,1.1406,1.1486,1.1551,1.1619,1.1672,1.1739,1.1812,1.191,1.1953,1.204,1.2128,1.2259,1.2315,1.2384,1.2394,1.2409,1.2412,1.2415,1.241,1.2359,1.2402,1.2402,1.2402,1.2402,1.2403,0,1.1287,1.1347,1.1421,1.1523,1.1586,1.1621,1.1705,1.1756,1.1831,1.1909,1.1981,1.208,1.2164,1.225,1.2339,1.2378,1.24,1.2399,1.2397,1.2409,1.2396,1.2379,1.2379,1.2379,1.2379,1.2379,1.2379,1.2379,1.1302,1.1382,1.1428,1.154,1.1601,1.1686,1.1732,1.1795,1.1858,1.1965,1.2035,1.2091,1.2173,1.2268,1.2347,1.237,1.24,1.2394,1.2422,1.2409,1.241,1.2411,1.2395,1.2399,1.2399,1.243,1.243,1.243]},{"header":{"parameterUnit":"m.s-1","parameterCategory":1,"la1":30.2991,"la2":30.254,"lo1":-89.0895,"lo2":-89.0444,"dy":0.0017,"dx":0.0017,"nx":28,"ny":28,"refTime":"2025-07-12T21:00:00:Z","depth":0,"parameterNumber":3,"parameterNumberName":"V-component_of_WINDS"},"data":[0,0,0,0,0,0,0,0,0,0,0,0,0,0,0,0,0,0,0,0,0,0,0,0,0,0,0,0,0,0,0,0,0,0,0,0,0,0,0,0,0,0,0,0,0,0,0,0,0,0,0,0,0,0,0,0,0,0,4.0655,4.0654,0,4.0625,4.0624,4.0624,4.0572,4.0571,4.057,4.0569,4.0539,4.0539,4.0539,0,0,0,0,0,0,0,0,0,0,0,0,0,4.0668,4.0668,4.0655,4.0654,4.0654,4.0625,4.0624,4.0624,4.0572,4.0571,4.057,4.0569,4.0539,4.0539,4.0539,0,0,0,0,0,0,0,0,0,0,0,0,0,4.0653,4.0668,4.0655,4.0625,4.0622,4.0625,4.0624,4.0624,4.0572,4.0571,4.057,4.0568,4.0539,4.0539,4.0539,4.0569,0,0,4.0539,4.0539,0,0,0,0,0,0,0,0,4.0654,4.0652,4.063,4.0627,4.0623,4.0601,4.0618,4.0605,4.0573,4.0591,4.0569,4.0567,4.056,4.0559,4.0556,4.0567,4.0566,4.0539,4.0539,4.0539,4.0539,0,0,0,0,0,0,0,4.0655,4.0653,4.0643,4.0629,4.0626,4.0613,4.0609,4.0615,4.0584,4.059,4.0586,4.0583,4.0558,4.0556,4.0555,4.0566,4.0539,4.0539,4.0539,4.0539,4.06,4.0602,0,0,0,0,0,0,4.066,4.0655,4.0644,4.0642,4.0635,4.0614,4.061,4.0609,4.0584,4.0579,4.0584,4.058,4.0557,4.0555,4.0554,4.0587,4.0539,4.0539,4.054,4.0599,4.06,4.0602,0,0,0,0,0,0,4.0661,4.066,4.0645,4.0647,4.0644,4.0615,4.0615,4.061,4.0607,4.058,4.0574,4.0587,4.0555,4.0554,4.0566,4.0586,4.054,4.054,4.0597,4.0599,4.0601,4.0655,0,0,0,0,0,0,4.0661,4.066,4.0671,4.0648,4.0644,4.0657,4.0617,4.061,4.0608,4.0603,4.0582,4.0577,4.0554,4.0566,4.0566,4.0585,4.054,4.0595,4.0598,4.0601,4.0651,4.0659,4.0665,0,0,0,0,0,4.0662,4.0688,4.0672,4.0671,4.0658,4.0659,4.0657,4.063,4.0609,4.062,4.0603,4.0577,4.0583,4.0567,4.0567,4.0587,4.0593,4.0597,4.06,4.0648,4.0657,4.0665,0,0,0,0,0,0,4.0714,4.0684,4.0666,4.0685,4.0675,4.065,4.0663,4.0641,4.0636,4.0631,4.0599,4.0594,4.0611,4.06,4.0582,4.0614,4.0584,4.0588,4.0621,4.0629,4.0636,4.0639,4.054,0,0,0,0,0,4.0728,4.0731,4.0705,4.0724,4.0719,4.0692,4.0692,4.0672,4.066,4.0655,4.0639,4.0628,4.0627,4.0628,4.0626,4.0649,4.0644,4.0663,4.067,4.0676,4.0679,4.0691,4.0699,4.0613,4.0613,4.0613,0,0,4.0756,4.074,4.0744,4.0734,4.0723,4.0728,4.0689,4.0695,4.0698,4.0656,4.0666,4.0654,4.064,4.0658,4.0665,4.0649,4.0702,4.068,4.0685,4.0685,4.0695,4.0703,4.0711,4.0616,4.0615,4.0615,0,0,4.081,4.0798,4.0813,4.0804,4.0788,4.077,4.0774,4.0752,4.0742,4.0752,4.0721,4.0724,4.0724,4.0715,4.071,4.0761,4.0738,4.0762,4.0798,4.081,4.0817,4.0823,4.0841,4.0848,4.0765,4.0765,4.0765,0,4.0848,4.0852,4.0823,4.0831,4.0828,4.0791,4.0805,4.0798,4.0783,4.0781,4.0764,4.0763,4.0751,4.0766,4.0779,4.0776,4.0779,4.0764,4.0818,4.0824,4.0829,4.0846,4.0853,4.0768,4.0768,4.0768,4.0767,0,4.0899,4.0903,4.0917,4.0903,4.0901,4.0913,4.0886,4.0887,4.0868,4.0851,4.0862,4.0846,4.084,4.0843,4.0824,4.0856,4.0846,4.0824,4.0793,4.084,4.0856,4.0862,4.0773,4.0772,4.0771,4.077,0,0,4.0985,4.0955,4.0961,4.0954,4.0935,4.0938,4.0947,4.0942,4.0944,4.0935,4.0942,4.0943,4.0922,4.0917,4.0897,4.0908,4.0949,4.0884,4.0883,4.0897,4.0984,4.1001,4.1009,4.0934,4.0935,4.0936,4.0985,0,4.1035,4.105,4.1024,4.1045,4.1049,4.1013,4.1022,4.1011,4.0996,4.0997,4.098,4.0981,4.0954,4.0951,4.096,4.0943,4.0966,4.0939,4.0941,4.0941,4.0945,4.1017,4.1034,4.1081,4.0991,4.0992,4.0992,0,4.1095,4.1089,4.111,4.109,4.109,4.1099,4.1091,4.1092,4.108,4.1068,4.1063,4.1039,4.1047,4.1018,4.1029,4.1011,4.101,4.1002,4.1003,4.1002,4.097,4.1018,4.1096,4.1103,4.1002,4.1001,4.1,0,4.1156,4.1153,4.1165,4.1161,4.1137,4.1144,4.1134,4.112,4.1118,4.1112,4.1111,4.1106,4.1103,4.11,4.1075,4.1056,4.1089,4.1058,4.108,4.1081,4.1089,4.1089,4.1168,4.1088,4.1088,4.1088,4.1088,0,4.1214,4.1229,4.1192,4.12,4.1216,4.1186,4.1202,4.1189,4.1176,4.1181,4.115,4.1155,4.1123,4.1124,4.1105,4.1118,4.1117,4.1108,4.1102,4.111,4.1112,4.111,4.1106,4.109,4.1089,4.1089,4.1089,0,4.1284,4.1261,4.1272,4.1249,4.1243,4.1256,4.1236,4.1242,4.1225,4.1232,4.1231,4.1205,4.1205,4.1181,4.1176,4.1163,4.1183,4.1172,4.1188,4.1184,4.1208,4.1206,4.1289,4.1298,4.1213,4.1214,4.1215,0,4.1323,4.1334,4.1312,4.1312,4.1304,4.1306,4.1304,4.1276,4.1275,4.1261,4.1269,4.1267,4.1264,4.1266,4.1246,4.1243,4.1231,4.126,4.123,4.1238,4.1232,4.1232,4.1233,4.1267,4.1268,4.1269,4.1269,0,4.1395,4.1383,4.1381,4.1376,4.1374,4.1369,4.1361,4.1363,4.1332,4.1333,4.1333,4.133,4.1325,4.1324,4.1316,4.1306,4.1283,4.1279,4.1284,4.1292,4.1301,4.1297,4.1205,4.1277,4.1276,4.1276,4.1275,4.1275,4.1451,4.1458,4.1444,4.1443,4.1435,4.1428,4.1433,4.1417,4.1416,4.141,4.1393,4.1396,4.1383,4.1371,4.1363,4.1365,4.135,4.1357,4.1359,4.1361,4.1366,4.1301,4.1363,4.1363,4.1363,4.1362,4.1362,0,4.1521,4.151,4.151,4.15,4.15,4.1477,4.1468,4.1469,4.1472,4.1461,4.1459,4.1459,4.1457,4.1437,4.1433,4.1439,4.1428,4.1438,4.1438,4.1436,4.1379,4.1375,4.1447,4.1447,4.1447,4.1447,4.1447,4.1447,4.1557,4.1569,4.1556,4.1563,4.1552,4.1554,4.1551,4.1544,4.1536,4.1538,4.1536,4.1523,4.1509,4.1504,4.1501,4.1495,4.1495,4.151,4.1501,4.1448,4.144,4.1432,4.1428,4.151,4.151,4.1557,4.1558,4.1558]}]]